Flag for Italy Weather past 2 weeks in Catania, Italy

Now
86 °F

Passing clouds.


Feels Like: 87 °F
Forecast: 63 / 89 °F
Wind: 10 mph from East

Location: Catania / Fontanarossa

Current Time: Aug 29, 2015 at 4:46:45 PM

Latest Report: Aug 29, 2015 at 3:50 PM


Visibility: N/A

Pressure: 30.09 "Hg

Humidity: 46%

Dew point: 63 °F

Location of CataniaLocation

Historic Weather in Catania — Graph

°F

Catania temperature yesterday

Maximum temperature yesterday: 84 °F (at 11:50 AM)
Minimum temperature yesterday: 68 °F (at 5:50 AM)
Average temperature yesterday: 78 °F

Past Weeks' High & Low Weather Summary

 TemperatureHumidityPressure
High91 °F (Aug 15, 11:20 AM)88% (Aug 28, 3:20 AM)30.12 "Hg (Aug 28, 3:20 AM)
Low64 °F (Aug 17, 4:50 AM)16% (Aug 25, 11:20 AM)29.77 "Hg (Aug 15, 5:50 PM)
Average78 °F57%29.96 "Hg
* Reported Aug 14 3:20 PM — Aug 29 3:20 PM, Catania, Weather by CustomWeather, © 2015

Note: Actual official high and low records may vary slightly from our data, if they occured in-between our weather recording intervals... More about our weather records

Advertising

Catania weather history for previous 24 hours

 ConditionsComfort  
Time TempWeatherWind HumidityBarometerVisibility
3:20 PM
Sat, Aug 29
88 °FPassing clouds.12 mph38%30.09 "HgN/A
2:50 PM88 °FSunny.13 mph31%30.09 "Hg10 mi
2:20 PM88 °FSunny.9 mph33%30.12 "Hg10 mi
1:50 PM88 °FSunny.12 mph40%30.12 "Hg10 mi
1:20 PM86 °FSunny.13 mph43%30.12 "Hg10 mi
12:50 PM88 °FSunny.13 mph38%30.12 "Hg10 mi
11:50 AM86 °FSunny.14 mph38%30.12 "Hg10 mi
11:20 AM84 °FSunny.16 mph55%30.12 "Hg10 mi
10:50 AM82 °FPassing clouds.9 mph62%30.12 "HgN/A
10:20 AM82 °FSunny.9 mph58%30.12 "Hg10 mi
9:20 AM81 °FSunny.6 mph48%30.12 "Hg10 mi
8:50 AM77 °FPassing clouds.7 mph51%30.12 "HgN/A
7:50 AM72 °FPassing clouds.5 mph65%30.12 "HgN/A
7:20 AM68 °FClear.6 mph73%30.09 "Hg10 mi
6:50 AM66 °FClear.6 mph78%30.09 "Hg10 mi
6:20 AM66 °FClear.5 mph78%30.09 "Hg10 mi
5:50 AM66 °FClear.5 mph78%30.09 "Hg10 mi
4:50 AM68 °FClear.5 mph73%30.09 "Hg10 mi
4:20 AM70 °FClear.5 mph69%30.09 "Hg10 mi
3:50 AM70 °FPassing clouds.3 mph64%30.09 "HgN/A
3:20 AM72 °FClear.6 mph65%30.09 "Hg10 mi
2:50 AM70 °FPassing clouds.5 mph73%30.09 "HgN/A
2:20 AM70 °FClear.9 mph73%30.07 "Hg10 mi
1:50 AM70 °FClear.7 mph78%30.09 "Hg10 mi
1:20 AM70 °FClear.7 mph83%30.09 "Hg10 mi
12:50 AM72 °FClear.7 mph78%30.09 "Hg10 mi
12:20 AM72 °FClear.6 mph78%30.09 "Hg10 mi
11:50 PM
Fri, Aug 28
73 °FClear.6 mph78%30.09 "Hg10 mi
10:50 PM73 °FClear.5 mph78%30.09 "Hg10 mi
10:20 PM75 °FClear.2 mph74%30.09 "Hg10 mi
9:50 PM77 °FClear.No wind74%30.09 "Hg10 mi
9:20 PM75 °FClear.1 mph74%30.09 "Hg10 mi
8:50 PM77 °FPassing clouds.5 mph69%30.07 "HgN/A
8:20 PM77 °FPassing clouds.5 mph69%30.07 "HgN/A
7:50 PM79 °FPassing clouds.3 mph65%30.07 "HgN/A
7:20 PM79 °FPassing clouds.5 mph70%30.07 "HgN/A
6:50 PM81 °FPassing clouds.7 mph66%30.07 "HgN/A
6:20 PM81 °FPassing clouds.8 mph62%30.07 "HgN/A
5:50 PM82 °FScattered clouds.8 mph58%30.07 "HgN/A
5:20 PM82 °FScattered clouds.10 mph58%30.07 "HgN/A
4:50 PM82 °FScattered clouds.12 mph58%30.07 "HgN/A
4:20 PM82 °FScattered clouds.12 mph58%30.07 "HgN/A
Weather by CustomWeather, © 2015

See weather overviewHow to use our weather pages